Zurück zum Katalog

SARI-1

AktivWissenschaftSSO
NORAD 66668·PAYLOAD·🇬🇷 Greece

Gestartet Nov 28, 2025 von Vandenberg Space Force Base

Loading…

Nächste Überflüge (nächste 24 Stunden)

TLE

AktuellSource: Space-Track

Epoche: Sep 13, 2026, 16:39 UTC

1 66668U 25276C   26256.69387315  .00025963  00000-0  82412-3 0  9992
2 66668  97.3976 330.5895 0006358  62.2140 297.9746 15.32630230 44024

Verfolge SARI-1 in Echtzeit mit AllMySat

Download on the App Store